GFSNE_con_lsi_048.txt.gz
Lid_Strength_Index
4 4 3 2 2 3 2 2 4 6 6 4 4 3 3 4 3 3 4 0 -1 -1 -1 -1 -1 -1 -1 -1 -1 -1 -1 -1 -1 -1 -0 -0 -0 0
3 4 4 2 1 2 2 2 2 4 6 4 2 3 2 2 3 4 4 1 -0 -0 -0 -0 -0 -1 -1 -1 -1 -1 -1 -1 -0 -0 0 0 0 0
3 4 4 4 2 2 2 2 2 2 4 4 3 2 2 3 4 4 4 4 2 -0 -0 -1 -0 -1 -0 -0 -0 -0 -1 -0 0 1 1 0 0 0
4 4 4 3 3 3 2 4 2 2 4 6 4 4 3 2 3 5 5 4 4 1 -0 -1 -0 -0 -0 -0 0 -0 0 0 1 1 1 1 1 1
4 4 4 4 4 3 3 3 3 2 3 4 5 3 3 3 3 4 6 6 4 1 -0 -0 -1 -0 -0 0 0 1 1 1 1 1 1 1 1 1
3 3 3 4 4 3 2 3 3 3 3 3 3 4 4 3 3 5 6 6 7 4 1 1 0 -1 0 -0 0 1 2 1 1 2 2 2 2 2
3 3 3 2 1 0 2 2 2 3 3 3 5 5 4 5 5 4 6 7 7 7 5 4 3 2 2 0 2 1 2 2 2 2 2 2 2 2
4 3 3 0 0 -0 -0 0 1 4 4 3 3 4 5 4 4 4 7 7 8 7 8 8 5 5 5 4 2 2 2 2 2 2 2 2 2 2
3 3 2 1 1 1 0 -0 -0 -0 0 3 3 3 4 3 3 5 6 6 6 7 7 8 8 8 7 5 2 2 2 2 3 3 3 3 3 2
2 2 1 2 2 2 2 2 3 2 2 1 2 3 3 3 3 2 3 5 5 6 6 8 8 8 7 6 3 2 2 3 3 3 3 3 3 3
1 1 2 2 1 0 2 2 3 3 -0 -1 -0 -0 -0 -0 0 3 4 5 6 5 4 7 7 8 8 7 6 3 3 3 3 3 3 3 3 3
2 2 0 1 0 0 2 4 4 4 3 3 2 0 -0 0 -0 2 3 5 6 7 5 6 7 7 9 8 7 6 5 3 4 4 4 4 4 6
3 3 3 0 0 0 0 3 3 2 2 3 3 2 2 1 1 0 2 4 5 5 4 4 8 7 9 8 7 7 6 6 6 5 4 4 5 5
4 3 3 1 0 0 0 0 -0 0 3 3 3 3 3 3 2 1 2 2 3 3 3 4 7 8 9 9 9 7 6 6 6 6 6 5 4 4
3 2 1 1 1 1 0 0 0 3 3 3 3 3 2 3 2 2 2 2 3 3 3 5 6 7 8 10 9 8 8 7 5 4 6 5 6 6
2 2 2 2 1 2 2 1 2 2 2 3 3 3 3 3 3 2 3 3 4 4 4 4 5 7 9 9 9 9 7 7 6 5 4 5 5 5
3 2 3 4 3 3 3 2 2 2 2 2 2 2 3 3 3 3 3 4 4 5 5 4 6 7 8 8 7 7 6 6 5 5 5 5 5 5
4 5 4 3 3 4 4 3 3 2 2 3 3 3 2 3 3 3 4 4 5 6 6 5 6 7 6 6 5 6 6 6 6 5 5 6 6 5
5 4 5 4 4 4 3 3 3 2 3 3 2 2 2 2 3 5 4 4 6 7 6 5 7 7 8 9 6 6 6 6 5 5 5 6 6 5
5 5 6 5 5 5 3 3 3 3 2 2 3 4 4 4 5 5 5 6 7 7 6 6 6 7 8 7 7 6 8 5 5 6 6 5 5 5
7 7 7 7 6 6 5 5 5 5 5 5 5 5 5 6 7 6 7 6 6 5 6 6 6 4 4 5 6 7 6 7 5 5 5 6 6 6
8 8 8 7 7 6 7 7 7 7 7 7 7 8 8 7 7 7 7 6 5 5 6 5 5 5 6 7 7 8 7 6 6 6 5 4 4 6
9 9 9 9 9 8 8 9 9 9 9 9 9 8 8 7 7 6 6 5 5 5 4 4 4 4 5 5 6 6 5 5 4 4 5 5 5 5

GFSNE_con_lsi_051.txt.gz
Lid_Strength_Index
6 6 5 4 4 3 4 3 4 7 7 5 4 3 2 2 2 2 2 0 -1 -1 -0 -1 -1 -2 -2 -2 -2 -2 -2 -2 -2 -1 -1 -1 -1 -1
5 5 5 5 4 3 3 3 3 4 5 5 4 3 0 -0 1 3 2 2 -1 -1 -0 0 -1 -2 -2 -2 -2 -2 -2 -2 -2 -2 -1 -1 -1 -0
5 5 5 4 4 4 3 2 2 3 4 4 4 3 3 1 0 1 1 3 3 -1 -0 -0 -0 -1 -2 -1 -2 -2 -1 -2 -2 -1 -1 -1 -0 -0
5 5 5 3 4 4 4 3 2 2 3 5 4 4 3 2 2 1 2 2 4 2 -1 -0 0 -0 -1 -1 -1 -1 -1 -1 -1 -1 -1 -0 -0 0
4 4 5 4 4 4 5 4 4 2 3 5 5 4 3 3 3 1 3 5 3 3 -0 -0 0 1 -1 -1 -1 -0 -0 0 -0 -0 -0 0 0 0
4 3 3 4 4 4 4 5 4 4 5 5 5 5 4 4 4 3 3 5 5 3 1 1 -1 -0 -0 -1 -1 0 1 1 1 1 1 1 1 1
4 3 3 2 1 1 3 4 3 5 5 6 6 5 5 4 5 4 5 3 4 5 3 3 2 1 1 -0 0 0 1 1 1 1 1 2 2 1
4 3 3 1 1 -0 -0 -0 1 4 4 5 5 5 5 5 4 4 4 5 6 4 4 5 3 3 2 2 1 0 1 1 1 1 2 2 2 2
2 3 3 2 1 2 1 -0 1 0 1 3 3 4 5 4 4 5 4 4 5 5 5 6 6 4 4 3 2 1 1 1 2 2 2 2 2 2
2 2 3 3 2 2 3 4 3 3 2 1 2 2 3 3 3 3 4 4 3 4 6 7 8 7 7 5 2 2 1 2 2 2 2 2 3 2
3 2 2 3 1 0 2 3 4 3 1 -1 -0 -0 -0 -0 1 3 4 4 5 5 6 7 8 8 7 8 6 2 2 2 2 2 2 2 3 3
4 2 0 1 0 0 2 3 5 3 3 2 2 1 0 1 -0 2 3 3 6 7 4 6 7 7 9 7 7 6 4 3 3 3 3 3 3 5
5 4 2 0 0 0 0 3 3 2 2 4 4 4 4 3 1 1 2 2 4 6 5 4 7 8 8 9 8 8 7 7 6 4 3 4 4 5
4 4 4 1 0 0 1 0 0 1 3 4 4 4 4 3 2 1 0 1 2 3 3 4 7 7 8 8 8 7 8 7 7 8 7 5 4 4
3 3 2 1 1 1 1 0 0 2 3 3 4 4 3 3 2 2 1 0 2 3 2 4 5 6 7 8 9 9 8 8 7 7 7 6 5 6
2 3 2 2 1 3 3 3 3 3 4 4 4 3 2 3 2 2 2 3 3 3 3 3 4 4 7 7 8 9 9 9 8 7 7 6 6 6
4 4 4 4 5 5 5 4 4 3 3 3 3 3 3 2 2 1 2 3 4 4 5 4 4 4 5 6 8 8 9 8 7 7 7 6 6 6
6 6 6 5 6 6 5 5 4 2 3 3 2 2 3 3 2 3 3 4 4 4 5 5 5 6 6 6 5 8 8 7 5 5 5 7 6 5
7 7 6 4 3 3 4 5 5 3 3 3 3 3 2 2 3 3 3 4 4 4 4 4 5 6 8 8 6 6 6 6 6 6 5 6 6 5
5 5 6 5 4 3 2 3 3 4 3 3 2 2 3 3 3 3 4 4 4 4 5 4 5 6 7 7 7 6 7 6 7 6 6 5 5 4
8 8 6 6 5 4 3 3 2 3 3 4 3 3 2 3 4 4 4 4 4 5 6 6 4 3 5 4 6 7 7 8 5 5 5 6 6 6
8 8 7 6 6 6 6 5 5 5 4 4 4 4 3 3 4 4 4 4 5 6 7 5 5 4 5 6 7 7 6 6 6 6 5 5 6 7
10 9 9 8 8 7 7 7 7 7 6 6 6 6 5 5 4 4 5 6 6 6 5 5 5 5 6 6 6 6 6 5 5 5 6 6 5 5

GFSNE_con_lsi_057.txt.gz
Lid_Strength_Index
8 8 8 7 7 6 6 6 7 9 8 8 6 4 2 2 0 0 1 -1 -1 -1 -1 -1 -1 -1 -2 -2 -2 -1 -1 -2 -2 -2 -2 -2 -2 -2
7 7 8 7 7 7 6 6 6 7 9 7 6 4 3 1 1 0 0 -1 -1 -1 -1 -1 -0 -1 -1 -1 -1 -1 -1 -2 -2 -2 -2 -2 -2 -2
7 8 8 7 7 7 6 5 6 6 7 6 6 5 5 3 2 1 0 0 -0 -1 -1 -1 -1 -1 -0 -1 -1 -1 -0 -1 -2 -2 -2 -2 -2 -2
7 7 7 6 7 7 7 7 6 6 6 7 6 5 5 4 3 3 0 -0 -0 -1 -1 -1 -1 -1 -0 -0 -0 -0 -0 -0 -1 -2 -2 -2 -2 -2
7 7 7 7 8 7 7 7 6 4 4 4 4 4 3 4 3 2 3 2 -0 -1 -1 -1 -1 -0 0 0 -0 1 0 1 0 -1 -1 -2 -2 -2
7 7 7 7 7 7 7 7 5 4 3 3 3 3 5 4 2 3 3 4 3 0 -1 -1 -1 -0 0 -0 0 1 1 1 1 1 -0 -1 -2 -2
7 6 6 5 3 4 6 6 5 3 3 3 3 4 5 4 3 4 3 4 4 2 1 1 0 0 1 1 1 1 2 1 1 1 0 0 -0 -1
6 6 5 3 3 2 1 0 1 3 4 4 4 4 5 4 3 4 4 3 5 3 2 2 0 1 2 2 1 1 1 1 1 2 2 1 0 0
5 5 5 4 3 4 2 1 -0 -0 0 3 4 4 4 3 3 3 4 4 5 3 2 4 2 3 2 2 1 1 1 2 2 2 2 2 1 0
4 5 5 5 5 4 4 3 3 3 2 2 2 2 2 2 2 2 4 4 4 3 2 4 2 4 2 2 1 1 1 2 3 2 2 2 1 1
5 5 5 5 3 1 3 3 4 3 1 0 2 0 -0 -0 1 3 5 5 6 5 3 3 3 5 4 4 3 2 2 2 3 2 2 1 2 2
5 5 3 4 2 1 3 3 4 4 3 2 2 1 0 1 -0 3 4 5 6 6 4 4 4 4 6 5 5 5 3 3 3 3 2 2 2 4
5 6 5 3 2 1 0 2 2 2 3 4 3 2 2 2 2 2 3 3 6 6 4 3 4 5 6 7 7 6 5 5 5 4 2 3 3 4
5 5 5 2 1 0 1 1 0 1 4 4 4 4 5 4 3 2 3 3 3 4 3 2 4 4 5 7 8 7 7 6 6 6 5 3 2 3
4 4 3 2 1 1 1 1 0 2 3 5 5 5 5 4 4 3 3 3 4 3 2 2 3 4 4 6 8 7 8 7 6 7 7 5 6 5
2 3 2 2 2 1 2 2 2 2 3 4 4 6 5 5 5 4 4 4 4 5 3 2 2 4 6 6 7 7 7 7 7 7 8 8 7 6
3 4 6 6 6 4 4 4 3 2 4 4 5 5 5 5 5 4 4 3 5 4 4 5 4 3 4 6 7 7 8 7 6 7 7 8 8 7
5 5 7 6 7 6 6 6 4 3 4 5 5 5 5 5 4 3 4 4 4 3 3 5 5 5 4 5 5 7 7 7 7 7 7 8 8 7
8 8 8 7 7 7 7 7 6 4 5 5 5 5 4 3 2 3 3 3 4 3 4 5 5 5 6 7 6 6 7 7 7 8 7 8 8 7
8 7 5 4 5 5 6 6 6 6 5 5 5 4 3 2 3 3 3 3 3 3 3 3 4 4 5 6 7 8 7 7 7 8 8 7 7 5
9 8 7 6 5 4 4 4 3 4 5 5 5 4 4 3 3 3 3 2 2 3 3 3 3 1 3 3 6 8 8 8 6 7 8 8 8 8
9 9 8 7 6 6 5 4 3 4 4 4 5 4 4 3 2 3 2 3 3 3 3 3 3 3 4 5 6 8 9 8 8 7 6 7 8 9
10 9 9 8 7 6 6 6 5 4 3 3 3 3 3 3 2 2 2 2 3 3 3 3 3 3 4 5 5 6 7 7 7 7 7 7 7 7

GFSNE_con_lsi_060.txt.gz
Lid_Strength_Index
9 9 9 8 7 7 7 8 9 11 11 8 8 5 4 3 1 1 1 -1 -2 -2 -1 -1 -1 -1 -1 -2 -2 -2 -2 -2 -1 -1 -2 -2 -2 -2
7 8 8 8 8 8 7 7 7 8 10 7 7 6 4 2 2 1 1 -1 -1 -2 -1 -1 -1 -1 -1 -1 -1 -1 -1 -2 -1 -1 -1 -2 -2 -3
8 8 8 7 8 8 8 7 7 7 9 7 7 6 6 5 3 2 0 0 -0 -1 -1 -1 -1 -1 -1 -1 -1 -1 -1 -1 -2 -2 -1 -2 -2 -2
8 8 8 6 7 7 8 8 8 7 8 9 7 7 6 5 4 3 2 1 -0 -1 -1 -1 -1 -1 -1 -1 -1 -1 -1 -1 -1 -2 -1 -1 -2 -2
7 7 7 8 8 8 8 8 8 8 8 8 8 7 6 5 5 4 3 2 0 -1 -1 -1 -1 -1 -1 -1 -1 -0 0 -0 -0 -1 -1 -0 -2 -2
7 7 7 8 8 8 7 8 8 8 8 7 7 7 6 5 4 4 4 3 2 0 -1 -1 -1 -1 -1 -1 -1 -0 1 0 -0 -0 -0 -0 -1 -1
7 7 7 6 4 5 6 6 7 8 8 7 7 6 6 4 4 2 3 3 3 1 1 1 0 0 -0 -1 -1 -0 0 -0 0 0 1 1 1 -1
6 6 5 4 3 2 2 1 3 7 8 7 6 6 5 3 2 2 3 3 4 0 2 2 0 1 0 0 -1 -1 -0 0 0 1 1 1 2 1
5 5 5 4 4 4 3 2 2 1 2 4 5 4 4 3 2 3 3 3 4 3 1 3 1 2 0 -0 -1 -0 -0 0 0 2 2 1 1 1
4 4 4 4 4 4 5 5 5 5 4 3 2 3 2 1 1 1 2 2 2 1 2 4 2 2 1 0 -0 -0 -0 1 1 1 2 2 2 2
4 4 4 4 3 2 4 5 6 5 2 -0 -0 -0 0 -0 0 1 3 4 5 3 2 2 3 3 2 1 1 0 1 1 1 2 2 2 3 3
4 3 2 3 3 2 4 6 5 5 3 3 2 1 0 1 -0 1 2 4 5 4 2 4 3 3 5 3 1 2 2 1 2 2 2 2 3 4
4 4 4 2 2 2 2 4 4 3 2 3 3 2 2 2 1 1 1 2 4 5 3 3 3 3 4 6 4 4 2 2 3 3 3 3 4 4
3 4 4 2 2 2 2 0 0 1 3 4 4 4 3 3 2 2 2 2 2 3 2 3 4 3 5 6 6 5 5 4 3 4 4 3 4 4
4 3 3 2 1 2 1 1 1 2 3 4 4 5 4 3 2 2 2 2 3 3 2 3 2 3 3 5 5 6 7 6 5 5 5 4 4 4
3 3 3 2 2 2 2 3 1 2 3 4 4 4 4 4 3 3 3 3 4 4 3 3 2 2 3 5 5 6 6 7 6 6 6 7 6 4
4 4 6 6 6 5 4 5 3 2 3 4 5 6 4 4 4 3 3 3 5 4 5 4 3 2 2 4 5 5 6 6 6 7 7 8 7 5
7 6 8 7 7 7 6 5 5 3 3 4 4 4 5 5 5 4 4 4 4 4 3 4 4 4 4 3 3 5 6 6 7 7 7 8 8 7
8 8 8 8 7 7 7 7 6 4 4 4 5 5 5 5 4 4 3 4 4 4 3 4 5 5 6 6 5 4 6 6 7 7 6 6 7 7
9 8 7 5 5 5 7 7 7 6 6 5 5 5 4 4 4 3 3 4 4 3 3 3 5 5 5 7 7 6 6 6 6 7 7 6 6 5
10 9 8 6 6 5 4 4 6 6 6 6 6 5 5 3 3 3 3 2 3 3 4 3 4 2 3 5 7 7 7 8 6 6 7 7 7 7
10 9 8 7 6 6 5 5 4 3 4 6 4 5 5 4 3 3 3 3 3 3 3 2 3 3 4 5 7 8 8 7 7 7 6 6 7 8
10 9 9 8 7 7 6 6 5 4 3 4 5 3 2 2 3 2 2 2 2 3 2 3 3 3 4 4 5 7 8 8 7 7 7 6 6 6

GFSNE_con_lsi_066.txt.gz
Lid_Strength_Index
5 5 6 5 5 5 5 5 7 8 8 5 5 2 2 2 2 2 2 1 -0 -1 -1 -0 -1 -1 -1 -1 -1 -1 -2 -1 -1 -1 -1 -1 -1 -2
5 5 5 4 4 4 5 5 5 6 7 5 4 3 2 2 1 2 1 -0 -1 0 -1 -1 -1 -1 -1 -1 -1 -1 -1 -1 -1 -1 -1 -1 -1 -1
4 5 5 5 5 5 5 5 6 6 7 6 4 3 3 3 3 2 1 1 0 -1 -1 -1 -1 -1 -1 -1 -1 -1 -1 -1 -1 -1 -1 -1 -1 -1
5 5 5 5 5 5 5 6 6 6 7 8 6 5 4 3 3 3 2 1 1 -0 -0 -1 -1 -1 -1 -1 -1 -0 -0 -0 -1 -1 -1 -1 -2 -2
5 5 5 5 6 6 5 6 5 5 6 7 8 6 5 4 4 3 3 2 2 0 0 -0 -1 -1 -1 -1 -0 -0 0 0 0 -0 -1 -1 -1 -1
5 5 5 5 5 6 6 6 6 6 6 6 7 7 7 6 5 5 5 3 2 1 1 -0 -1 -1 -1 -1 -1 -0 0 0 -0 0 0 -0 -1 -1
5 5 5 4 3 4 6 6 6 7 6 6 6 7 6 6 6 5 5 4 3 2 2 1 0 -0 -1 -1 -1 0 0 0 -0 -0 0 0 0 -0
5 3 3 3 3 2 2 2 3 5 5 5 5 6 6 6 5 5 5 5 6 2 3 2 -0 0 -0 -0 -1 -0 0 0 0 0 0 0 0 -0
4 4 5 4 3 3 2 1 1 0 1 4 5 5 5 4 4 5 5 4 4 3 2 3 1 1 -0 -0 -0 -0 -0 0 0 1 1 0 0 0
4 5 5 5 4 4 4 4 2 2 2 2 3 4 4 3 3 3 4 3 2 1 1 3 1 2 -0 -1 -0 0 -0 0 0 1 1 1 1 0
4 5 5 4 2 1 3 3 3 3 2 1 1 1 1 1 1 2 3 3 4 3 1 2 1 1 1 1 -0 0 0 0 0 -0 0 1 1 0
5 4 3 3 1 1 2 2 4 4 3 3 2 2 1 1 1 2 2 3 4 4 1 2 2 2 3 1 0 0 -0 0 1 0 0 1 1 -0
6 5 4 3 2 1 1 1 2 2 2 2 3 2 2 2 1 0 0 1 3 3 0 1 2 2 2 3 2 1 0 0 -0 -0 0 1 2 1
6 4 4 3 3 2 2 1 0 1 1 2 2 2 2 2 1 0 0 0 -0 1 0 0 2 2 3 3 4 1 1 0 0 0 0 1 1 1
5 3 3 3 2 1 2 1 1 1 1 3 3 2 2 2 1 1 -0 -0 -0 1 1 2 1 1 2 3 4 3 3 1 0 1 0 1 1 1
5 4 3 3 2 1 1 1 1 1 2 2 2 2 1 2 3 2 2 2 3 3 3 1 0 1 2 2 2 3 3 3 1 1 1 0 0 0
5 4 5 3 2 1 2 2 2 2 2 2 2 2 3 4 3 2 3 3 4 3 3 1 0 0 1 1 3 3 4 2 1 1 1 2 1 0
7 7 6 4 4 3 3 3 3 4 3 2 2 2 3 3 3 3 3 3 3 3 3 2 2 2 2 2 2 4 4 3 1 1 1 2 3 1
8 8 8 6 5 4 3 3 4 4 3 2 2 2 3 3 3 4 4 3 3 2 2 2 2 3 5 6 4 4 4 4 3 3 2 3 3 2
9 8 8 7 6 5 4 4 3 3 3 2 2 3 3 3 3 3 3 3 3 3 3 2 2 2 4 4 4 5 5 4 3 4 4 3 2 3
9 9 8 7 6 6 5 4 3 3 3 2 2 2 2 2 2 2 3 3 2 3 3 3 2 0 1 1 4 5 4 6 4 3 4 4 4 4
9 9 9 8 7 6 6 5 4 3 3 2 2 1 1 1 2 2 2 3 3 2 2 2 1 1 1 2 4 5 6 4 5 5 5 5 5 7
9 9 9 8 7 7 6 6 5 4 3 2 2 2 1 2 2 2 2 2 2 2 2 3 2 1 2 2 4 5 5 5 4 5 5 6 6 6